Погода в Зеленом

Украина / Днепропетровская область     48°39′19″N   36°15′51″E
В апреле 2022 года жителям России запретили посещать сайт meteo.paraplan.net по решению Генеральной прокуратуры. Аудитория сайта уменьшилась в 10 раз. Владельцы сайта не видят смысла в поддержке погодного сервера в таких условиях. Сайт будет закрыт в октябре.
темп.,
°C
ветер,
м/с
пор.,
м/с
влажн.,
%
обл.,
%
осадки,
мм/ч
давл.,
гПа
погр.,
м
3 октября, пн
пн300:00+12з71082100 3.4 10001047
03:00+11з91379100 3.5 10011023
06:00+10зюз7147792 0.1 10031387
09:00+11зюз8127577 0.2 10051114
12:00+14юз81258100 0.1 10071631
15:00+14юз8115363 0.2 10091301
18:00+13юз611565 0.0 1009363
21:00+13ююз6126021 0.0 1011577
4 октября, вт
вт400:00+11ююз496955 0.0 1011292
03:00+12ю377393 0.1 1011291
06:00+9ююз37873 0.0 1012164
09:00+13ююз58695 0.0 1013568
12:00+16юз710471 0.0 10131569
15:00+17зюз7114154 0.0 10132285
18:00+14з485690 0.0 1015720
21:00+11з3863100 0.0 1017269
5 октября, ср
ср500:00+9зюз377158 0.0 1018189
03:00+8юз39755 0.0 1019234
06:00+8юз37805 0.0 1020171
09:00+11зюз57695 0.0 1021472
12:00+15зюз675656 0.0 10211438
15:00+14з795737 0.4 10211338
18:00+11зсз596888 0.0 1023569
21:00+10зсз4974100 0.1 1025549
6 октября, чт
чт600:00+9зсз377782 0.0 1025344
03:00+7сз358828 0.0 1026109
06:00+7з2389100 0.0 102678
09:00+10з347087 0.0 1026314
12:00+15зюз345193 0.0 1026928
15:00+17з45435 0.0 10241298
18:00+15зюз33535 0.0 102429
21:00+14юз335899 0.0 102557
7 октября, пт
пт700:00+12юз346469 0.0 102555
03:00+11зюз3468100 0.0 102562
06:00+10з33747 0.0 102539
09:00+13сз347134 0.0 1025242
12:00+18ссз44585 0.0 1025914
15:00+19с455392 0.0 10241465
18:00+16с35575 0.0 102577
21:00+13ссв36655 0.0 1025106